Time,TemperatureF,DewpointF,PressureIn,WindDirection,WindDirectionDegrees,WindSpeedMPH,WindSpeedGustMPH,Humidity,HourlyPrecipIn,Conditions,Clouds,dailyrainin,SoftwareType,DateUTC
2013-07-13 00:02:00,62.8,62.8,29.12,SSE,159,0.0,0.0,100,0.00,,---,0.00,VWS V14.01,2013-07-13 05:02:00,
2013-07-13 00:07:00,62.4,62.4,29.12,SSE,159,0.0,0.0,100,0.00,,---,0.00,VWS V14.01,2013-07-13 05:07:00,
2013-07-13 00:12:00,62.6,62.6,29.12,SSE,159,0.0,0.0,100,0.00,,---,0.00,VWS V14.01,2013-07-13 05:12:00,
2013-07-13 00:17:00,62.6,62.6,29.12,SSE,159,0.0,0.0,100,0.00,,---,0.00,VWS V14.01,2013-07-13 05:17:00,
2013-07-13 00:22:00,62.2,62.2,29.12,SSW,211,0.0,0.0,100,0.00,,---,0.00,VWS V14.01,2013-07-13 05:22:00,
2013-07-13 00:27:00,61.9,61.9,29.12,SSW,211,0.0,0.0,100,0.00,,---,0.00,VWS V14.01,2013-07-13 05:27:00,
2013-07-13 00:32:00,61.9,61.9,29.12,SSW,211,0.0,0.0,100,0.00,,---,0.00,VWS V14.01,2013-07-13 05:32:00,
2013-07-13 00:37:00,61.9,61.9,29.12,SSW,211,0.0,0.0,100,0.00,,---,0.00,VWS V14.01,2013-07-13 05:37:00,
2013-07-13 00:42:00,61.7,61.7,29.12,SSW,211,0.0,0.0,100,0.00,,---,0.00,VWS V14.01,2013-07-13 05:42:00,
2013-07-13 00:46:00,61.7,61.7,29.12,SSW,211,0.0,0.0,100,0.00,,---,0.00,VWS V14.01,2013-07-13 05:46:00,
2013-07-13 00:51:00,61.7,61.7,29.12,SSW,211,0.0,0.0,100,0.00,,---,0.00,VWS V14.01,2013-07-13 05:51:00,
2013-07-13 00:56:00,61.5,61.5,29.12,SSW,211,0.0,0.0,100,0.00,,---,0.00,VWS V14.01,2013-07-13 05:56:00,
2013-07-13 01:01:00,61.3,61.3,29.12,SSW,211,0.0,0.0,100,0.00,,---,0.00,VWS V14.01,2013-07-13 06:01:00,
2013-07-13 01:06:00,61.3,61.3,29.12,SSW,211,0.0,0.0,100,0.00,,---,0.00,VWS V14.01,2013-07-13 06:06:00,
2013-07-13 01:11:00,61.2,61.2,29.12,SSW,211,0.0,0.0,100,0.00,,---,0.00,VWS V14.01,2013-07-13 06:11:00,
2013-07-13 01:16:00,61.0,61.0,29.12,SSW,211,0.0,0.0,100,0.00,,---,0.00,VWS V14.01,2013-07-13 06:16:00,
2013-07-13 01:21:00,61.0,61.0,29.12,SSW,211,0.0,0.0,100,0.00,,---,0.00,VWS V14.01,2013-07-13 06:21:00,
2013-07-13 01:26:00,60.8,60.8,29.12,SSW,211,0.0,0.0,100,0.00,,---,0.00,VWS V14.01,2013-07-13 06:26:00,
2013-07-13 01:31:00,60.6,60.6,29.15,SSW,211,0.0,0.0,100,0.00,,---,0.00,VWS V14.01,2013-07-13 06:31:00,
2013-07-13 01:36:00,60.6,60.6,29.15,SSW,211,0.0,0.0,100,0.00,,---,0.00,VWS V14.01,2013-07-13 06:36:00,
2013-07-13 01:41:00,60.6,60.6,29.15,SSW,211,0.0,0.0,100,0.00,,---,0.00,VWS V14.01,2013-07-13 06:41:00,
2013-07-13 01:46:00,60.6,60.6,29.15,SSW,211,0.0,0.0,100,0.00,,---,0.00,VWS V14.01,2013-07-13 06:46:00,
2013-07-13 01:51:00,60.4,60.4,29.15,SSW,211,0.0,0.0,100,0.00,,---,0.00,VWS V14.01,2013-07-13 06:51:00,
2013-07-13 01:56:00,60.4,60.4,29.15,SSW,211,0.0,0.0,100,0.00,,---,0.00,VWS V14.01,2013-07-13 06:56:00,
2013-07-13 02:01:00,60.4,60.4,29.15,SSW,211,0.0,0.0,100,0.00,,---,0.00,VWS V14.01,2013-07-13 07:01:00,
2013-07-13 02:06:00,60.3,60.3,29.15,SSW,211,0.0,0.0,100,0.00,,---,0.00,VWS V14.01,2013-07-13 07:06:00,
2013-07-13 02:11:00,60.3,60.3,29.15,SSW,211,0.0,0.0,100,0.00,,---,0.00,VWS V14.01,2013-07-13 07:11:00,
2013-07-13 02:16:00,60.1,60.1,29.12,SSW,211,0.0,0.0,100,0.00,,---,0.00,VWS V14.01,2013-07-13 07:16:00,
2013-07-13 02:21:00,60.3,60.3,29.12,SSW,211,0.0,0.0,100,0.00,,---,0.00,VWS V14.01,2013-07-13 07:21:00,
2013-07-13 02:26:00,60.3,60.3,29.12,SSW,211,0.0,0.0,100,0.00,,---,0.00,VWS V14.01,2013-07-13 07:26:00,
2013-07-13 02:31:00,60.3,60.3,29.12,SSW,211,0.0,0.0,100,0.00,,---,0.00,VWS V14.01,2013-07-13 07:31:00,
2013-07-13 02:36:00,60.1,60.1,29.12,SSW,211,0.0,0.0,100,0.00,,---,0.00,VWS V14.01,2013-07-13 07:36:00,
2013-07-13 02:41:00,60.1,60.1,29.12,South,186,0.0,0.0,100,0.00,,---,0.00,VWS V14.01,2013-07-13 07:41:00,
2013-07-13 02:46:00,60.3,60.3,29.12,ESE,119,0.0,0.0,100,0.00,,---,0.00,VWS V14.01,2013-07-13 07:46:00,
2013-07-13 02:51:00,60.3,60.3,29.12,ENE,64,0.0,0.0,100,0.00,,---,0.00,VWS V14.01,2013-07-13 07:51:00,
2013-07-13 02:56:00,60.3,60.3,29.12,ENE,57,0.0,0.0,100,0.00,,---,0.00,VWS V14.01,2013-07-13 07:56:00,
2013-07-13 03:01:00,60.4,60.4,29.12,ENE,57,0.0,0.0,100,0.00,,---,0.00,VWS V14.01,2013-07-13 08:01:00,
2013-07-13 03:06:00,60.8,60.8,29.12,SW,215,0.0,2.7,100,0.00,,---,0.00,VWS V14.01,2013-07-13 08:06:00,
2013-07-13 03:11:00,61.0,61.0,29.12,SW,236,0.0,0.0,100,0.00,,---,0.00,VWS V14.01,2013-07-13 08:11:00,
2013-07-13 03:16:00,61.2,61.2,29.12,SW,214,0.0,0.0,100,0.00,,---,0.00,VWS V14.01,2013-07-13 08:16:00,
2013-07-13 03:21:00,61.3,61.3,29.12,WSW,248,0.0,0.0,100,0.00,,---,0.00,VWS V14.01,2013-07-13 08:21:00,
2013-07-13 03:26:00,61.3,61.3,29.12,WNW,285,0.0,0.0,100,0.00,,---,0.00,VWS V14.01,2013-07-13 08:26:00,
2013-07-13 03:31:00,61.5,61.5,29.12,WNW,285,0.0,0.0,100,0.00,,---,0.00,VWS V14.01,2013-07-13 08:31:00,
2013-07-13 03:36:00,61.7,61.7,29.12,WNW,285,0.0,0.0,100,0.00,,---,0.00,VWS V14.01,2013-07-13 08:36:00,
2013-07-13 03:41:00,61.7,61.7,29.12,WNW,285,0.0,0.0,100,0.00,,---,0.00,VWS V14.01,2013-07-13 08:41:00,
2013-07-13 03:46:00,61.7,61.7,29.15,WNW,285,0.0,0.0,100,0.00,,---,0.00,VWS V14.01,2013-07-13 08:46:00,
2013-07-13 03:51:00,61.7,61.7,29.15,WNW,285,0.0,0.0,100,0.00,,---,0.00,VWS V14.01,2013-07-13 08:51:00,
2013-07-13 03:56:00,61.7,61.7,29.15,WNW,285,0.0,0.0,100,0.00,,---,0.00,VWS V14.01,2013-07-13 08:56:00,
2013-07-13 04:01:00,61.5,61.5,29.15,WNW,285,0.0,0.0,100,0.00,,---,0.00,VWS V14.01,2013-07-13 09:01:00,
2013-07-13 04:06:00,61.3,61.3,29.15,WNW,285,0.0,0.0,100,0.00,,---,0.00,VWS V14.01,2013-07-13 09:06:00,
2013-07-13 04:11:00,61.3,61.3,29.15,WNW,285,0.0,0.0,100,0.00,,---,0.00,VWS V14.01,2013-07-13 09:11:00,
2013-07-13 04:16:00,61.3,61.3,29.12,WNW,285,0.0,0.0,100,0.00,,---,0.00,VWS V14.01,2013-07-13 09:16:00,
2013-07-13 04:22:00,61.2,61.2,29.12,WNW,285,0.0,0.0,100,0.00,,---,0.00,VWS V14.01,2013-07-13 09:22:00,
2013-07-13 04:27:00,61.0,61.0,29.12,WNW,285,0.0,0.0,100,0.00,,---,0.00,VWS V14.01,2013-07-13 09:27:00,
2013-07-13 04:32:00,61.0,61.0,29.12,WNW,285,0.0,0.0,100,0.00,,---,0.00,VWS V14.01,2013-07-13 09:32:00,
2013-07-13 04:37:00,61.0,61.0,29.12,WNW,285,0.0,0.0,100,0.00,,---,0.00,VWS V14.01,2013-07-13 09:37:00,
2013-07-13 04:42:00,60.8,60.8,29.12,WNW,285,0.0,0.0,100,0.00,,---,0.00,VWS V14.01,2013-07-13 09:42:00,
2013-07-13 04:47:00,60.6,60.6,29.12,WNW,285,0.0,0.0,100,0.00,,---,0.00,VWS V14.01,2013-07-13 09:47:00,
2013-07-13 04:52:00,60.4,60.4,29.12,North,353,0.0,0.0,100,0.00,,---,0.00,VWS V14.01,2013-07-13 09:52:00,
2013-07-13 04:57:00,60.3,60.3,29.12,North,353,0.0,0.0,100,0.00,,---,0.00,VWS V14.01,2013-07-13 09:57:00,
2013-07-13 05:02:00,60.1,60.1,29.12,North,353,0.0,0.0,100,0.00,,---,0.00,VWS V14.01,2013-07-13 10:02:00,
2013-07-13 05:07:00,60.1,60.1,29.12,North,353,0.0,0.0,100,0.00,,---,0.00,VWS V14.01,2013-07-13 10:07:00,
2013-07-13 05:12:00,60.1,60.1,29.12,North,353,0.0,0.0,100,0.00,,---,0.00,VWS V14.01,2013-07-13 10:12:00,
2013-07-13 05:17:00,60.1,60.1,29.12,North,353,0.0,0.0,100,0.00,,---,0.00,VWS V14.01,2013-07-13 10:17:00,
2013-07-13 05:22:00,59.9,59.9,29.12,North,353,0.0,0.0,100,0.00,,---,0.00,VWS V14.01,2013-07-13 10:22:00,
2013-07-13 05:27:00,60.1,60.1,29.12,North,353,0.0,0.0,100,0.00,,---,0.00,VWS V14.01,2013-07-13 10:27:00,
2013-07-13 05:32:00,59.9,59.9,29.15,North,353,0.0,0.0,100,0.00,,---,0.00,VWS V14.01,2013-07-13 10:32:00,
2013-07-13 05:37:00,60.1,60.1,29.15,North,353,0.0,0.0,100,0.00,,---,0.00,VWS V14.01,2013-07-13 10:37:00,
2013-07-13 05:42:00,60.1,60.1,29.15,North,353,0.0,0.0,100,0.00,,---,0.00,VWS V14.01,2013-07-13 10:42:00,
2013-07-13 05:46:00,60.1,60.1,29.15,North,353,0.0,0.0,100,0.00,,---,0.00,VWS V14.01,2013-07-13 10:46:00,
2013-07-13 05:51:00,60.3,60.3,29.15,North,353,0.0,0.0,100,0.00,,---,0.00,VWS V14.01,2013-07-13 10:51:00,
2013-07-13 05:56:00,60.4,60.4,29.15,North,353,0.0,0.0,100,0.00,,---,0.00,VWS V14.01,2013-07-13 10:56:00,
2013-07-13 06:01:00,60.6,60.6,29.15,North,353,0.0,0.0,100,0.00,,---,0.00,VWS V14.01,2013-07-13 11:01:00,
2013-07-13 06:06:00,60.6,60.6,29.15,North,353,0.0,0.0,100,0.00,,---,0.00,VWS V14.01,2013-07-13 11:06:00,
2013-07-13 06:11:00,60.8,60.8,29.15,North,353,0.0,0.0,100,0.00,,---,0.00,VWS V14.01,2013-07-13 11:11:00,
2013-07-13 06:16:00,60.8,60.8,29.15,North,353,0.0,0.0,100,0.00,,---,0.00,VWS V14.01,2013-07-13 11:16:00,
2013-07-13 06:21:00,61.0,61.0,29.15,North,353,0.0,0.0,100,0.00,,---,0.00,VWS V14.01,2013-07-13 11:21:00,
2013-07-13 06:26:00,61.0,61.0,29.15,North,353,0.0,0.0,100,0.00,,---,0.00,VWS V14.01,2013-07-13 11:26:00,
2013-07-13 06:31:00,61.2,61.2,29.15,North,353,0.0,0.0,100,0.00,,---,0.00,VWS V14.01,2013-07-13 11:31:00,
2013-07-13 06:36:00,61.2,61.2,29.15,North,353,0.0,0.0,100,0.00,,---,0.00,VWS V14.01,2013-07-13 11:36:00,
2013-07-13 06:41:00,61.3,61.3,29.15,North,353,0.0,0.0,100,0.00,,---,0.00,VWS V14.01,2013-07-13 11:41:00,
2013-07-13 06:46:00,61.3,61.3,29.15,North,353,0.0,0.0,100,0.00,,---,0.00,VWS V14.01,2013-07-13 11:46:00,
2013-07-13 06:51:00,61.7,61.7,29.15,North,353,0.0,0.0,100,0.00,,---,0.00,VWS V14.01,2013-07-13 11:51:00,
2013-07-13 06:56:00,61.9,61.9,29.15,North,353,0.0,0.0,100,0.00,,---,0.00,VWS V14.01,2013-07-13 11:56:00,
2013-07-13 07:01:00,62.1,62.1,29.15,North,353,0.0,0.0,100,0.00,,---,0.00,VWS V14.01,2013-07-13 12:01:00,
2013-07-13 07:06:00,62.2,62.2,29.15,North,353,0.0,0.0,100,0.00,,---,0.00,VWS V14.01,2013-07-13 12:06:00,
2013-07-13 07:11:00,62.2,62.2,29.15,West,275,0.0,0.0,100,0.00,,---,0.00,VWS V14.01,2013-07-13 12:11:00,
2013-07-13 07:16:00,62.6,62.6,29.15,West,261,0.0,0.0,100,0.00,,---,0.00,VWS V14.01,2013-07-13 12:16:00,
2013-07-13 07:21:00,62.8,62.8,29.15,NNW,346,0.0,0.0,100,0.00,,---,0.00,VWS V14.01,2013-07-13 12:21:00,
2013-07-13 07:26:00,63.1,63.1,29.15,NE,45,0.0,0.0,100,0.00,,---,0.00,VWS V14.01,2013-07-13 12:26:00,
2013-07-13 07:31:00,63.3,63.3,29.15,North,357,0.0,0.0,100,0.00,,---,0.00,VWS V14.01,2013-07-13 12:31:00,
2013-07-13 07:36:00,63.5,63.5,29.15,North,357,0.0,0.0,100,0.00,,---,0.00,VWS V14.01,2013-07-13 12:36:00,
2013-07-13 07:41:00,63.5,63.5,29.15,North,357,0.0,0.0,100,0.00,,---,0.00,VWS V14.01,2013-07-13 12:41:00,
2013-07-13 07:46:00,63.7,63.7,29.15,West,276,0.0,0.0,100,0.00,,---,0.00,VWS V14.01,2013-07-13 12:46:00,
2013-07-13 07:51:00,63.9,63.9,29.15,WNW,288,3.6,3.6,100,0.00,,---,0.00,VWS V14.01,2013-07-13 12:51:00,
2013-07-13 07:56:00,64.0,64.0,29.15,WNW,300,0.0,2.2,100,0.00,,---,0.00,VWS V14.01,2013-07-13 12:56:00,
2013-07-13 08:01:00,64.2,64.2,29.18,WSW,250,0.0,0.0,100,0.00,,---,0.00,VWS V14.01,2013-07-13 13:01:00,
2013-07-13 08:06:00,64.4,64.4,29.18,WSW,239,3.1,3.1,100,0.00,,---,0.00,VWS V14.01,2013-07-13 13:06:00,
2013-07-13 08:11:00,64.6,64.6,29.18,SSW,202,2.2,3.1,100,0.00,,---,0.00,VWS V14.01,2013-07-13 13:11:00,
2013-07-13 08:16:00,64.8,64.8,29.18,SW,221,0.0,0.0,100,0.00,,---,0.00,VWS V14.01,2013-07-13 13:16:00,
2013-07-13 08:21:00,65.1,65.1,29.18,NW,309,2.2,3.6,100,0.00,,---,0.00,VWS V14.01,2013-07-13 13:21:00,
2013-07-13 08:26:00,65.3,65.3,29.18,NW,313,0.0,0.0,100,0.00,,---,0.00,VWS V14.01,2013-07-13 13:26:00,
2013-07-13 08:31:00,65.5,65.5,29.18,NW,313,0.0,0.0,100,0.00,,---,0.00,VWS V14.01,2013-07-13 13:31:00,
2013-07-13 08:36:00,65.7,65.7,29.18,NW,313,0.0,0.0,100,0.00,,---,0.00,VWS V14.01,2013-07-13 13:36:00,
2013-07-13 08:41:00,65.8,65.8,29.18,NW,323,0.0,0.0,100,0.00,,---,0.00,VWS V14.01,2013-07-13 13:41:00,
2013-07-13 08:46:00,66.2,66.2,29.18,NW,323,0.0,0.0,100,0.00,,---,0.00,VWS V14.01,2013-07-13 13:46:00,
2013-07-13 08:51:00,66.2,66.2,29.18,NW,308,0.0,0.0,100,0.00,,---,0.00,VWS V14.01,2013-07-13 13:51:00,
2013-07-13 08:56:00,66.6,66.6,29.18,West,261,0.0,0.0,100,0.00,,---,0.00,VWS V14.01,2013-07-13 13:56:00,
2013-07-13 09:01:00,66.7,66.7,29.18,West,276,0.0,0.0,100,0.00,,---,0.00,VWS V14.01,2013-07-13 14:01:00,
2013-07-13 09:06:00,67.1,67.1,29.18,WNW,302,2.2,3.6,100,0.00,,---,0.00,VWS V14.01,2013-07-13 14:06:00,
2013-07-13 09:11:00,67.5,67.5,29.18,NW,305,0.0,0.0,100,0.00,,---,0.00,VWS V14.01,2013-07-13 14:11:00,
2013-07-13 09:16:00,68.2,68.2,29.18,NE,56,0.0,2.7,100,0.00,,---,0.00,VWS V14.01,2013-07-13 14:16:00,
2013-07-13 09:21:00,68.5,68.5,29.18,West,271,3.1,3.6,100,0.00,,---,0.00,VWS V14.01,2013-07-13 14:21:00,
2013-07-13 09:26:00,68.9,68.9,29.18,North,6,0.0,0.0,100,0.00,,---,0.00,VWS V14.01,2013-07-13 14:26:00,
2013-07-13 09:31:00,69.4,69.4,29.18,WNW,302,4.9,4.9,100,0.00,,---,0.00,VWS V14.01,2013-07-13 14:31:00,
2013-07-13 09:36:00,69.6,69.3,29.18,West,279,4.0,4.9,99,0.00,,---,0.00,VWS V14.01,2013-07-13 14:36:00,
2013-07-13 09:41:00,70.0,69.7,29.18,WNW,303,0.0,0.0,99,0.00,,---,0.00,VWS V14.01,2013-07-13 14:41:00,
2013-07-13 09:46:00,70.2,69.9,29.18,NNW,328,3.1,3.6,99,0.00,,---,0.00,VWS V14.01,2013-07-13 14:46:00,
2013-07-13 09:51:00,70.3,70.1,29.18,WSW,247,4.9,4.9,99,0.00,,---,0.00,VWS V14.01,2013-07-13 14:51:00,
2013-07-13 09:56:00,70.5,69.3,29.18,SW,220,2.2,2.2,96,0.00,,---,0.00,VWS V14.01,2013-07-13 14:56:00,
2013-07-13 10:01:00,70.7,67.6,29.18,WNW,284,2.2,2.7,90,0.00,,---,0.00,VWS V14.01,2013-07-13 15:01:00,
2013-07-13 10:06:00,70.9,70.6,29.18,SSW,207,0.0,0.0,99,0.00,,---,0.00,VWS V14.01,2013-07-13 15:06:00,
2013-07-13 10:11:00,70.9,70.6,29.18,WNW,293,2.7,2.7,99,0.00,,---,0.00,VWS V14.01,2013-07-13 15:11:00,
2013-07-13 10:16:00,71.2,70.9,29.18,WSW,254,2.7,2.7,99,0.00,,---,0.00,VWS V14.01,2013-07-13 15:16:00,
2013-07-13 10:21:00,71.1,68.9,29.18,SW,222,2.2,3.1,93,0.00,,---,0.00,VWS V14.01,2013-07-13 15:21:00,
2013-07-13 10:26:00,71.4,67.3,29.18,West,277,0.0,2.2,87,0.00,,---,0.00,VWS V14.01,2013-07-13 15:26:00,
2013-07-13 10:31:00,71.8,66.7,29.18,NW,320,0.0,0.0,84,0.00,,---,0.00,VWS V14.01,2013-07-13 15:31:00,
2013-07-13 10:36:00,72.1,70.9,29.18,South,176,0.0,0.0,96,0.00,,---,0.00,VWS V14.01,2013-07-13 15:36:00,
2013-07-13 10:41:00,72.5,61.8,29.18,ESE,116,0.0,0.0,69,0.00,,---,0.00,VWS V14.01,2013-07-13 15:41:00,
2013-07-13 10:46:00,73.4,65.0,29.18,West,266,3.1,3.6,75,0.00,,---,0.00,VWS V14.01,2013-07-13 15:46:00,
2013-07-13 10:51:00,73.9,61.9,29.18,SW,232,0.0,0.0,66,0.00,,---,0.00,VWS V14.01,2013-07-13 15:51:00,
2013-07-13 10:56:00,75.0,65.4,29.18,West,273,0.0,2.7,72,0.00,,---,0.00,VWS V14.01,2013-07-13 15:56:00,
2013-07-13 11:01:00,75.7,63.6,29.18,West,272,6.3,6.3,66,0.00,,---,0.00,VWS V14.01,2013-07-13 16:01:00,
2013-07-13 11:06:00,76.5,62.9,29.18,ENE,65,2.2,3.1,63,0.00,,---,0.00,VWS V14.01,2013-07-13 16:06:00,
2013-07-13 11:11:00,77.0,59.1,29.18,SW,222,3.6,3.6,54,0.00,,---,0.00,VWS V14.01,2013-07-13 16:11:00,
2013-07-13 11:16:00,77.4,59.4,29.18,West,259,4.0,4.5,54,0.00,,---,0.00,VWS V14.01,2013-07-13 16:16:00,
2013-07-13 11:21:00,77.5,54.5,29.18,WSW,238,5.4,5.4,45,0.00,,---,0.00,VWS V14.01,2013-07-13 16:21:00,
2013-07-13 11:26:00,77.7,54.7,29.18,West,268,4.0,4.0,45,0.00,,---,0.00,VWS V14.01,2013-07-13 16:26:00,
2013-07-13 11:31:00,78.4,60.4,29.18,ENE,63,0.0,0.0,54,0.00,,---,0.00,VWS V14.01,2013-07-13 16:31:00,
2013-07-13 11:36:00,78.8,59.2,29.18,South,175,0.0,3.1,51,0.00,,---,0.00,VWS V14.01,2013-07-13 16:36:00,
2013-07-13 11:41:00,80.1,60.3,29.18,North,5,2.7,3.6,51,0.00,,---,0.00,VWS V14.01,2013-07-13 16:41:00,
2013-07-13 11:46:00,80.8,51.4,29.18,North,9,0.0,0.0,36,0.00,,---,0.00,VWS V14.01,2013-07-13 16:46:00,
2013-07-13 11:51:00,81.9,56.5,29.18,SSW,208,3.6,3.6,42,0.00,,---,0.00,VWS V14.01,2013-07-13 16:51:00,
2013-07-13 11:56:00,82.0,52.5,29.18,NW,305,3.1,4.0,36,0.00,,---,0.00,VWS V14.01,2013-07-13 16:56:00,
2013-07-13 12:01:00,82.0,52.5,29.18,West,260,5.8,5.8,36,0.00,,---,0.00,VWS V14.01,2013-07-13 17:01:00,
2013-07-13 12:06:00,82.2,52.6,29.18,WNW,295,5.8,5.8,36,0.00,,---,0.00,VWS V14.01,2013-07-13 17:06:00,
2013-07-13 12:11:00,82.8,57.3,29.18,WNW,301,3.1,4.0,42,0.00,,---,0.00,VWS V14.01,2013-07-13 17:11:00,
2013-07-13 12:16:00,83.1,51.1,29.18,NW,314,4.0,4.0,33,0.00,,---,0.00,VWS V14.01,2013-07-13 17:16:00,
2013-07-13 12:21:00,82.9,50.9,29.18,NW,312,0.0,0.0,33,0.00,,---,0.00,VWS V14.01,2013-07-13 17:21:00,
2013-07-13 12:26:00,83.5,51.4,29.18,SSE,155,2.7,2.7,33,0.00,,---,0.00,VWS V14.01,2013-07-13 17:26:00,
2013-07-13 12:31:00,83.5,51.4,29.18,West,261,4.0,4.0,33,0.00,,---,0.00,VWS V14.01,2013-07-13 17:31:00,
2013-07-13 12:36:00,83.8,51.7,29.18,West,271,3.6,4.0,33,0.00,,---,0.00,VWS V14.01,2013-07-13 17:36:00,
2013-07-13 12:41:00,83.8,51.7,29.18,WNW,298,8.3,8.3,33,0.00,,---,0.00,VWS V14.01,2013-07-13 17:41:00,
2013-07-13 12:46:00,83.5,51.4,29.18,North,353,2.2,5.8,33,0.00,,---,0.00,VWS V14.01,2013-07-13 17:46:00,
2013-07-13 12:51:00,83.5,51.4,29.18,West,271,8.7,8.7,33,0.00,,---,0.00,VWS V14.01,2013-07-13 17:51:00,
2013-07-13 12:56:00,83.5,51.4,29.18,NW,321,5.4,5.4,33,0.00,,---,0.00,VWS V14.01,2013-07-13 17:56:00,
2013-07-13 13:01:00,83.5,51.4,29.18,West,262,3.1,3.6,33,0.00,,---,0.00,VWS V14.01,2013-07-13 18:01:00,
2013-07-13 13:06:00,83.1,51.1,29.18,NW,314,2.2,6.3,33,0.00,,---,0.00,VWS V14.01,2013-07-13 18:06:00,
2013-07-13 13:11:00,82.9,50.9,29.18,West,263,4.9,6.3,33,0.00,,---,0.00,VWS V14.01,2013-07-13 18:11:00,
2013-07-13 13:16:00,83.3,51.2,29.18,WNW,283,5.4,5.8,33,0.00,,---,0.00,VWS V14.01,2013-07-13 18:16:00,
2013-07-13 13:21:00,83.5,51.4,29.18,WNW,286,2.7,4.9,33,0.00,,---,0.00,VWS V14.01,2013-07-13 18:21:00,
2013-07-13 13:26:00,83.5,51.4,29.18,SSW,198,4.9,8.1,33,0.00,,---,0.00,VWS V14.01,2013-07-13 18:26:00,
2013-07-13 13:31:00,83.3,51.2,29.18,SW,218,2.7,3.6,33,0.00,,---,0.00,VWS V14.01,2013-07-13 18:31:00,
2013-07-13 13:36:00,83.3,51.2,29.18,North,0,3.1,4.0,33,0.00,,---,0.00,VWS V14.01,2013-07-13 18:36:00,
2013-07-13 13:41:00,83.7,51.5,29.18,NW,310,5.8,5.8,33,0.00,,---,0.00,VWS V14.01,2013-07-13 18:41:00,
2013-07-13 13:46:00,83.5,51.4,29.18,SW,231,2.2,5.4,33,0.00,,---,0.00,VWS V14.01,2013-07-13 18:46:00,
2013-07-13 13:51:00,83.1,51.1,29.15,WSW,257,2.7,2.7,33,0.00,,---,0.00,VWS V14.01,2013-07-13 18:51:00,
2013-07-13 13:56:00,82.9,50.9,29.15,SSW,204,5.4,5.4,33,0.00,,---,0.00,VWS V14.01,2013-07-13 18:56:00,
2013-07-13 14:01:00,83.1,51.1,29.15,WSW,247,0.0,0.0,33,0.00,,---,0.00,VWS V14.01,2013-07-13 19:01:00,
2013-07-13 14:06:00,82.9,50.9,29.15,NW,307,4.0,4.9,33,0.00,,---,0.00,VWS V14.01,2013-07-13 19:06:00,
2013-07-13 14:11:00,82.9,50.9,29.15,SW,222,0.0,2.2,33,0.00,,---,0.00,VWS V14.01,2013-07-13 19:11:00,
2013-07-13 14:16:00,83.1,51.1,29.15,SW,229,4.0,4.0,33,0.00,,---,0.00,VWS V14.01,2013-07-13 19:16:00,
2013-07-13 14:21:00,83.3,51.2,29.18,North,357,2.7,4.0,33,0.00,,---,0.00,VWS V14.01,2013-07-13 19:21:00,
2013-07-13 14:26:00,83.3,51.2,29.18,NW,310,4.9,5.8,33,0.00,,---,0.00,VWS V14.01,2013-07-13 19:26:00,
2013-07-13 14:31:00,82.9,50.9,29.18,NNE,22,3.1,4.0,33,0.00,,---,0.00,VWS V14.01,2013-07-13 19:31:00,
2013-07-13 14:36:00,82.8,50.8,29.18,North,350,0.0,3.6,33,0.00,,---,0.00,VWS V14.01,2013-07-13 19:36:00,
2013-07-13 14:41:00,82.8,50.8,29.18,SW,232,2.7,2.7,33,0.00,,---,0.00,VWS V14.01,2013-07-13 19:41:00,
2013-07-13 14:45:00,82.8,50.8,29.18,NNE,13,0.0,4.0,33,0.00,,---,0.00,VWS V14.01,2013-07-13 19:45:00,
2013-07-13 14:50:00,82.8,50.8,29.18,South,189,0.0,3.1,33,0.00,,---,0.00,VWS V14.01,2013-07-13 19:50:00,
2013-07-13 14:55:00,82.4,50.4,29.18,WNW,286,4.0,6.3,33,0.00,,---,0.00,VWS V14.01,2013-07-13 19:55:00,
2013-07-13 15:00:00,82.2,52.6,29.18,West,270,2.7,5.4,36,0.00,,---,0.00,VWS V14.01,2013-07-13 20:00:00,
2013-07-13 15:05:00,81.9,52.3,29.18,South,184,2.2,3.1,36,0.00,,---,0.00,VWS V14.01,2013-07-13 20:05:00,
2013-07-13 15:10:00,81.7,52.2,29.18,South,172,4.0,5.4,36,0.00,,---,0.00,VWS V14.01,2013-07-13 20:10:00,
2013-07-13 15:15:00,81.5,52.0,29.18,SSE,147,3.6,4.0,36,0.00,,---,0.00,VWS V14.01,2013-07-13 20:15:00,
2013-07-13 15:20:00,81.3,51.8,29.18,West,277,2.2,5.8,36,0.00,,---,0.00,VWS V14.01,2013-07-13 20:20:00,
2013-07-13 15:25:00,81.3,51.8,29.18,West,268,3.6,3.6,36,0.00,,---,0.00,VWS V14.01,2013-07-13 20:25:00,
2013-07-13 15:30:00,81.3,51.8,29.18,NE,52,3.1,3.1,36,0.00,,---,0.00,VWS V14.01,2013-07-13 20:30:00,
2013-07-13 15:35:00,81.3,51.8,29.15,NE,49,2.7,5.4,36,0.00,,---,0.00,VWS V14.01,2013-07-13 20:35:00,
2013-07-13 15:40:00,81.3,51.8,29.15,West,274,4.0,5.4,36,0.00,,---,0.00,VWS V14.01,2013-07-13 20:40:00,
2013-07-13 15:45:00,81.1,51.7,29.15,North,0,0.0,5.4,36,0.00,,---,0.00,VWS V14.01,2013-07-13 20:45:00,
2013-07-13 15:50:00,81.3,51.8,29.18,West,261,3.6,4.0,36,0.00,,---,0.00,VWS V14.01,2013-07-13 20:50:00,
2013-07-13 15:55:00,81.1,51.7,29.18,West,261,3.6,3.6,36,0.00,,---,0.00,VWS V14.01,2013-07-13 20:55:00,
2013-07-13 16:00:00,81.0,51.5,29.18,WNW,285,5.4,5.4,36,0.00,,---,0.00,VWS V14.01,2013-07-13 21:00:00,
2013-07-13 16:05:00,80.8,51.4,29.15,SSE,158,2.2,3.6,36,0.00,,---,0.00,VWS V14.01,2013-07-13 21:05:00,
2013-07-13 16:10:00,81.0,51.5,29.15,SW,220,4.0,4.0,36,0.00,,---,0.00,VWS V14.01,2013-07-13 21:10:00,
2013-07-13 16:15:00,81.0,51.5,29.15,SW,217,4.0,4.0,36,0.00,,---,0.00,VWS V14.01,2013-07-13 21:15:00,
2013-07-13 16:20:00,80.8,51.4,29.15,West,275,4.0,4.9,36,0.00,,---,0.00,VWS V14.01,2013-07-13 21:20:00,
2013-07-13 16:25:00,80.8,51.4,29.15,NNW,346,0.0,0.0,36,0.00,,---,0.00,VWS V14.01,2013-07-13 21:25:00,
2013-07-13 16:30:00,80.6,51.2,29.15,WSW,251,3.1,3.1,36,0.00,,---,0.00,VWS V14.01,2013-07-13 21:30:00,
2013-07-13 16:35:00,80.6,51.2,29.15,SSW,207,2.7,3.6,36,0.00,,---,0.00,VWS V14.01,2013-07-13 21:35:00,
2013-07-13 16:40:00,80.8,51.4,29.15,WSW,242,0.0,0.0,36,0.00,,---,0.00,VWS V14.01,2013-07-13 21:40:00,
2013-07-13 16:45:00,80.6,51.2,29.15,NW,311,2.7,3.6,36,0.00,,---,0.00,VWS V14.01,2013-07-13 21:45:00,
2013-07-13 16:50:00,80.6,51.2,29.15,South,173,2.2,2.2,36,0.00,,---,0.00,VWS V14.01,2013-07-13 21:50:00,
2013-07-13 16:55:00,80.4,51.0,29.15,ESE,111,0.0,4.9,36,0.00,,---,0.00,VWS V14.01,2013-07-13 21:55:00,
2013-07-13 17:00:00,80.6,51.2,29.15,NNW,329,2.2,4.0,36,0.00,,---,0.00,VWS V14.01,2013-07-13 22:00:00,
2013-07-13 17:05:00,80.6,51.2,29.15,West,274,2.2,3.1,36,0.00,,---,0.00,VWS V14.01,2013-07-13 22:05:00,
2013-07-13 17:10:00,80.6,51.2,29.15,NE,36,0.0,0.0,36,0.00,,---,0.00,VWS V14.01,2013-07-13 22:10:00,
2013-07-13 17:15:00,80.2,50.9,29.15,West,272,3.6,3.6,36,0.00,,---,0.00,VWS V14.01,2013-07-13 22:15:00,
2013-07-13 17:20:00,80.4,51.0,29.15,SW,235,4.0,4.0,36,0.00,,---,0.00,VWS V14.01,2013-07-13 22:20:00,
2013-07-13 17:25:00,80.2,50.9,29.15,South,177,2.7,2.7,36,0.00,,---,0.00,VWS V14.01,2013-07-13 22:25:00,
2013-07-13 17:30:00,80.2,50.9,29.15,NNE,29,3.1,3.1,36,0.00,,---,0.00,VWS V14.01,2013-07-13 22:30:00,
2013-07-13 17:35:00,80.4,57.2,29.15,ENE,61,2.7,3.6,45,0.00,,---,0.00,VWS V14.01,2013-07-13 22:35:00,
2013-07-13 17:40:00,80.2,57.0,29.15,West,275,0.0,3.1,45,0.00,,---,0.00,VWS V14.01,2013-07-13 22:40:00,
2013-07-13 17:45:00,80.2,50.9,29.15,SSE,162,2.7,3.1,36,0.00,,---,0.00,VWS V14.01,2013-07-13 22:45:00,
2013-07-13 17:50:00,80.1,56.8,29.15,West,268,2.7,2.7,45,0.00,,---,0.00,VWS V14.01,2013-07-13 22:50:00,
2013-07-13 17:55:00,80.1,56.8,29.15,ENE,68,3.6,3.6,45,0.00,,---,0.00,VWS V14.01,2013-07-13 22:55:00,
2013-07-13 18:00:00,80.2,57.0,29.15,NW,305,0.0,0.0,45,0.00,,---,0.00,VWS V14.01,2013-07-13 23:00:00,
2013-07-13 18:05:00,79.9,56.7,29.15,SE,125,0.0,3.1,45,0.00,,---,0.00,VWS V14.01,2013-07-13 23:05:00,
2013-07-13 18:10:00,79.3,59.7,29.15,SE,125,0.0,0.0,51,0.00,,---,0.00,VWS V14.01,2013-07-13 23:10:00,
2013-07-13 18:15:00,79.0,59.3,29.15,East,93,0.0,0.0,51,0.00,,---,0.00,VWS V14.01,2013-07-13 23:15:00,
2013-07-13 18:20:00,78.6,60.6,29.15,NE,45,0.0,0.0,54,0.00,,---,0.00,VWS V14.01,2013-07-13 23:20:00,
2013-07-13 18:25:00,78.3,60.3,29.15,South,181,2.7,2.7,54,0.00,,---,0.00,VWS V14.01,2013-07-13 23:25:00,
2013-07-13 18:30:00,77.9,59.9,29.15,WNW,284,0.0,0.0,54,0.00,,---,0.00,VWS V14.01,2013-07-13 23:30:00,
2013-07-13 18:35:00,77.7,62.7,29.15,South,190,0.0,0.0,60,0.00,,---,0.00,VWS V14.01,2013-07-13 23:35:00,
2013-07-13 18:40:00,77.5,64.0,29.15,East,98,0.0,0.0,63,0.00,,---,0.00,VWS V14.01,2013-07-13 23:40:00,
2013-07-13 18:45:00,77.2,63.6,29.15,SSE,160,0.0,0.0,63,0.00,,---,0.00,VWS V14.01,2013-07-13 23:45:00,
2013-07-13 18:50:00,77.0,66.1,29.15,SSE,165,0.0,0.0,69,0.00,,---,0.00,VWS V14.01,2013-07-13 23:50:00,
2013-07-13 18:55:00,77.0,67.3,29.15,North,0,0.0,0.0,72,0.00,,---,0.00,VWS V14.01,2013-07-13 23:55:00,
2013-07-13 19:00:00,77.2,66.2,29.15,NE,36,0.0,0.0,69,0.00,,---,0.00,VWS V14.01,2013-07-14 00:00:00,
2013-07-13 19:05:00,77.4,65.1,29.15,North,357,0.0,0.0,66,0.00,,---,0.00,VWS V14.01,2013-07-14 00:05:00,
2013-07-13 19:10:00,77.4,63.8,29.15,North,357,0.0,2.2,63,0.00,,---,0.00,VWS V14.01,2013-07-14 00:10:00,
2013-07-13 19:15:00,77.0,66.1,29.15,North,357,0.0,0.0,69,0.00,,---,0.00,VWS V14.01,2013-07-14 00:15:00,
2013-07-13 19:20:00,76.3,68.9,29.15,North,357,0.0,0.0,78,0.00,,---,0.00,VWS V14.01,2013-07-14 00:20:00,
2013-07-13 19:25:00,75.7,70.6,29.15,North,357,0.0,0.0,84,0.00,,---,0.00,VWS V14.01,2013-07-14 00:25:00,
2013-07-13 19:30:00,75.2,72.1,29.15,North,357,0.0,0.0,90,0.00,,---,0.00,VWS V14.01,2013-07-14 00:30:00,
2013-07-13 19:35:00,74.8,72.7,29.15,North,357,0.0,0.0,93,0.00,,---,0.00,VWS V14.01,2013-07-14 00:35:00,
2013-07-13 19:40:00,74.5,72.3,29.15,North,357,0.0,0.0,93,0.00,,---,0.00,VWS V14.01,2013-07-14 00:40:00,
2013-07-13 19:45:00,74.1,72.9,29.15,North,357,0.0,0.0,96,0.00,,---,0.00,VWS V14.01,2013-07-14 00:45:00,
2013-07-13 19:50:00,73.9,72.7,29.15,North,357,0.0,0.0,96,0.00,,---,0.00,VWS V14.01,2013-07-14 00:50:00,
2013-07-13 19:55:00,73.6,72.4,29.15,North,357,0.0,0.0,96,0.00,,---,0.00,VWS V14.01,2013-07-14 00:55:00,
2013-07-13 20:00:00,73.2,72.9,29.15,North,357,0.0,0.0,99,0.00,,---,0.00,VWS V14.01,2013-07-14 01:00:00,
2013-07-13 20:05:00,73.0,72.8,29.15,North,357,0.0,0.0,99,0.00,,---,0.00,VWS V14.01,2013-07-14 01:05:00,
2013-07-13 20:10:00,72.9,72.6,29.15,North,357,0.0,0.0,99,0.00,,---,0.00,VWS V14.01,2013-07-14 01:10:00,
2013-07-13 20:15:00,72.7,72.4,29.15,North,357,0.0,0.0,99,0.00,,---,0.00,VWS V14.01,2013-07-14 01:15:00,
2013-07-13 20:20:00,72.5,72.5,29.15,North,357,0.0,0.0,100,0.00,,---,0.00,VWS V14.01,2013-07-14 01:20:00,
2013-07-13 20:25:00,72.3,72.3,29.15,East,91,0.0,0.0,100,0.00,,---,0.00,VWS V14.01,2013-07-14 01:25:00,
2013-07-13 20:30:00,72.1,72.2,29.15,East,91,0.0,0.0,100,0.00,,---,0.00,VWS V14.01,2013-07-14 01:30:00,
2013-07-13 20:35:00,72.0,72.0,29.15,East,91,0.0,0.0,100,0.00,,---,0.00,VWS V14.01,2013-07-14 01:35:00,
2013-07-13 20:40:00,71.6,71.6,29.15,East,91,0.0,0.0,100,0.00,,---,0.00,VWS V14.01,2013-07-14 01:40:00,
2013-07-13 20:45:00,71.4,71.4,29.15,East,91,0.0,0.0,100,0.00,,---,0.00,VWS V14.01,2013-07-14 01:45:00,
2013-07-13 20:50:00,71.2,71.2,29.15,East,91,0.0,0.0,100,0.00,,---,0.00,VWS V14.01,2013-07-14 01:50:00,
2013-07-13 20:55:00,71.1,71.1,29.15,East,91,0.0,0.0,100,0.00,,---,0.00,VWS V14.01,2013-07-14 01:55:00,
2013-07-13 21:00:00,70.7,70.7,29.15,East,91,0.0,0.0,100,0.00,,---,0.00,VWS V14.01,2013-07-14 02:00:00,
2013-07-13 21:05:00,70.5,70.5,29.15,East,91,0.0,0.0,100,0.00,,---,0.00,VWS V14.01,2013-07-14 02:05:00,
2013-07-13 21:10:00,70.2,70.2,29.15,East,91,0.0,0.0,100,0.00,,---,0.00,VWS V14.01,2013-07-14 02:10:00,
2013-07-13 21:15:00,70.0,70.0,29.15,East,91,0.0,0.0,100,0.00,,---,0.00,VWS V14.01,2013-07-14 02:15:00,
2013-07-13 21:20:00,69.8,69.8,29.18,East,91,0.0,0.0,100,0.00,,---,0.00,VWS V14.01,2013-07-14 02:20:00,
2013-07-13 21:25:00,69.6,69.6,29.18,East,91,0.0,0.0,100,0.00,,---,0.00,VWS V14.01,2013-07-14 02:25:00,
2013-07-13 21:30:00,69.3,69.3,29.18,East,91,0.0,0.0,100,0.00,,---,0.00,VWS V14.01,2013-07-14 02:30:00,
2013-07-13 21:35:00,69.1,69.1,29.18,East,91,0.0,0.0,100,0.00,,---,0.00,VWS V14.01,2013-07-14 02:35:00,
2013-07-13 21:40:00,68.9,68.9,29.18,East,91,0.0,0.0,100,0.00,,---,0.00,VWS V14.01,2013-07-14 02:40:00,
2013-07-13 21:45:00,68.5,68.5,29.18,East,91,0.0,0.0,100,0.00,,---,0.00,VWS V14.01,2013-07-14 02:45:00,
2013-07-13 21:50:00,68.5,68.5,29.18,East,91,0.0,0.0,100,0.00,,---,0.00,VWS V14.01,2013-07-14 02:50:00,
2013-07-13 21:55:00,68.4,68.4,29.18,East,91,0.0,0.0,100,0.00,,---,0.00,VWS V14.01,2013-07-14 02:55:00,
2013-07-13 21:59:00,68.2,68.2,29.18,East,91,0.0,0.0,100,0.00,,---,0.00,VWS V14.01,2013-07-14 02:59:00,
2013-07-13 22:04:00,68.0,68.0,29.18,East,91,0.0,0.0,100,0.00,,---,0.00,VWS V14.01,2013-07-14 03:04:00,
2013-07-13 22:09:00,68.0,68.0,29.18,East,91,0.0,0.0,100,0.00,,---,0.00,VWS V14.01,2013-07-14 03:09:00,
2013-07-13 22:14:00,67.8,67.8,29.18,NNW,328,0.0,0.0,100,0.00,,---,0.00,VWS V14.01,2013-07-14 03:14:00,
2013-07-13 22:19:00,67.8,67.8,29.18,NNW,328,0.0,0.0,100,0.00,,---,0.00,VWS V14.01,2013-07-14 03:19:00,
2013-07-13 22:24:00,67.6,67.6,29.18,NNW,328,0.0,0.0,100,0.00,,---,0.00,VWS V14.01,2013-07-14 03:24:00,
2013-07-13 22:29:00,67.6,67.6,29.18,NNW,328,0.0,0.0,100,0.00,,---,0.00,VWS V14.01,2013-07-14 03:29:00,
2013-07-13 22:34:00,67.5,67.5,29.18,North,353,0.0,0.0,100,0.00,,---,0.00,VWS V14.01,2013-07-14 03:34:00,
2013-07-13 22:39:00,67.3,67.3,29.18,NNW,330,0.0,0.0,100,0.00,,---,0.00,VWS V14.01,2013-07-14 03:39:00,
2013-07-13 22:44:00,67.1,67.1,29.18,NW,325,0.0,0.0,100,0.00,,---,0.00,VWS V14.01,2013-07-14 03:44:00,
2013-07-13 22:49:00,66.9,66.9,29.18,NW,325,0.0,0.0,100,0.00,,---,0.00,VWS V14.01,2013-07-14 03:49:00,
2013-07-13 22:54:00,66.9,66.9,29.18,NW,325,0.0,0.0,100,0.00,,---,0.00,VWS V14.01,2013-07-14 03:54:00,
2013-07-13 22:59:00,66.7,66.7,29.18,NW,325,0.0,0.0,100,0.00,,---,0.00,VWS V14.01,2013-07-14 03:59:00,
2013-07-13 23:01:00,66.7,66.7,29.18,NW,325,0.0,0.0,100,0.00,,---,0.00,VWS V14.01,2013-07-14 04:01:00,
2013-07-13 23:06:00,66.6,66.6,29.18,NW,325,0.0,0.0,100,0.00,,---,0.00,VWS V14.01,2013-07-14 04:06:00,
2013-07-13 23:11:00,66.4,66.4,29.18,NW,325,0.0,0.0,100,0.00,,---,0.00,VWS V14.01,2013-07-14 04:11:00,
2013-07-13 23:16:00,66.0,66.0,29.18,NW,325,0.0,0.0,100,0.00,,---,0.00,VWS V14.01,2013-07-14 04:16:00,
2013-07-13 23:21:00,65.8,65.8,29.18,NW,325,0.0,0.0,100,0.00,,---,0.00,VWS V14.01,2013-07-14 04:21:00,
2013-07-13 23:26:00,65.7,65.7,29.18,NW,325,0.0,0.0,100,0.00,,---,0.00,VWS V14.01,2013-07-14 04:26:00,
2013-07-13 23:31:00,65.5,65.5,29.18,NW,325,0.0,0.0,100,0.00,,---,0.00,VWS V14.01,2013-07-14 04:31:00,
2013-07-13 23:36:00,65.3,65.3,29.18,NW,325,0.0,0.0,100,0.00,,---,0.00,VWS V14.01,2013-07-14 04:36:00,
2013-07-13 23:41:00,65.3,65.3,29.18,NW,325,0.0,0.0,100,0.00,,---,0.00,VWS V14.01,2013-07-14 04:41:00,
2013-07-13 23:46:00,65.3,65.3,29.18,NW,325,0.0,0.0,100,0.00,,---,0.00,VWS V14.01,2013-07-14 04:46:00,
2013-07-13 23:51:00,65.3,65.3,29.18,NW,325,0.0,0.0,100,0.00,,---,0.00,VWS V14.01,2013-07-14 04:51:00,
2013-07-13 23:56:00,65.1,65.1,29.18,NW,325,0.0,0.0,100,0.00,,---,0.00,VWS V14.01,2013-07-14 04:56:00,